Location: Chauzeix
(45.4543°N, 1.8179°E)
Time: 05:04:41
(UTC+00:00)

Daily predictions for brighter satellites

Satellite Brightness Start Highest point End
(mag) Time Altitude Azimuth Time Altitude Azimuth Time Altitude Azimuth
SeaSat 1 2.6 00:03:21 10° NNE 00:08:06 68° NW 00:08:06 68° NW
Cosmos 1943 Rocket 2.1 00:09:26 85° WNW 00:09:26 85° WNW 00:15:05 10° NNE
USA 215 3.3 00:10:09 57° SW 00:10:09 57° SW 00:16:21 10° WNW
Cosmos 2242 Rocket 4.3 00:11:36 52° NNE 00:11:36 52° NNE 00:15:01 10° NNE
ATLAS 2AS CENTAUR R/B 2.6 00:04:03 10° NW 00:11:18 67° WSW 00:11:46 65° SW
Cosmos 1461 4.3 00:15:16 35° ENE 00:15:16 35° ENE 00:18:19 10° NE
Cosmos 2181 Rocket 4.5 00:14:49 44° W 00:15:39 47° WNW 00:21:35 10° N
Cosmos 1937 Rocket 3.9 00:18:25 52° WNW 00:18:28 52° WNW 00:23:30 10° NNE
EO 1 Delta rocket 4.0 00:22:19 71° ENE 00:22:19 71° ENE 00:27:31 10° N
SL-16 R/B 4.1 00:21:04 16° ESE 00:25:05 30° ENE 00:30:25 10° N
Cosmos 1048 Rocket 4.4 00:20:28 10° NNW 00:25:44 56° ENE 00:26:21 53° E
Cosmos 2297 4.3 00:26:28 45° W 00:27:21 48° WNW 00:32:52 10° NNE
Okean 1-7 3.8 00:29:25 50° N 00:29:25 50° N 00:32:39 10° N
Cosmos 2084 Rocket 4.4 00:24:54 10° NW 00:27:53 44° NNW 00:27:53 44° NNW
CZ-4C R/B 4.5 00:24:47 10° WNW 00:29:35 20° WSW 00:29:35 20° WSW
Gbstr 26 Del rocket 4.0 00:29:25 10° WNW 00:36:12 69° NNE 00:41:38 10° ESE
Okean 2 Rocket 4.2 00:33:01 10° N 00:37:05 35° ENE 00:37:10 35° ENE
Cosmos 1821 Rocket 3.9 00:33:19 10° NNW 00:39:43 74° W 00:40:28 66° SW
Helios 1A 3.6 00:41:18 55° NNE 00:41:18 55° NNE 00:44:43 10° N
Okean 3 4.1 00:41:55 55° NNE 00:41:55 55° NNE 00:45:20 10° NNE
Cosmos 1656 Rocket 3.7 00:42:15 61° ESE 00:42:15 61° ESE 00:47:41 10° NNE
Cosmos 2150 Rocket 4.1 00:45:19 69° ESE 00:45:22 69° ESE 00:50:41 10° NNE
ISS -0.9 00:48:19 14° ENE 00:48:19 14° ENE 00:48:51 10° ENE
Helios 1B rocket 4.3 00:43:30 10° NE 00:46:30 22° E 00:46:30 22° E
Cosmos 1934 Rocket 3.9 00:45:13 10° N 00:51:26 79° E 00:52:36 60° SSE
Cosmos 1867 3.8 00:52:08 57° ESE 00:52:08 57° ESE 00:57:27 10° NE
RESURS DK-1 3.1 00:48:47 10° NNW 00:52:35 51° NE 00:52:35 51° NE
SL-24 R/B 4.3 00:54:10 78° WNW 00:54:10 78° WNW 00:58:29 10° NNW
Meteor 1-12 Rocket 4.2 00:50:08 10° NNW 00:56:02 72° W 00:56:29 68° SW
CZ-2D R/B 3.0 00:52:20 10° NNE 00:57:23 38° E 00:58:21 35° ESE
ATLAS CENTAUR R/B 3.0 01:02:36 24° ENE 01:02:36 24° ENE 01:04:35 10° NE
Cosmos 1300 Rocket 3.7 00:58:11 10° N 01:02:12 71° NNE 01:02:12 71° NNE
Cosmos 1535 Rocket 4.4 00:56:45 10° N 01:02:59 87° E 01:04:22 58° SSE
SL-27 R/B 4.3 01:04:53 10° NNW 01:06:28 26° NNW 01:06:28 26° NNW
Cosmos 2221 Rocket 3.7 01:08:51 73° E 01:08:51 73° E 01:13:17 10° NNE
Meteor 1-13 Rocket 4.3 01:09:25 56° WSW 01:09:59 59° WNW 01:15:29 10° N
USA 281 3.1 01:09:03 52° S 01:10:43 75° WSW 01:17:20 10° NNW
USA 81 4.0 01:08:52 10° N 01:14:12 81° E 01:14:57 65° SSE
CZ-4 R/B 4.1 01:17:53 10° N 01:22:42 56° WNW 01:23:00 55° W
MOZ.5/SAFIR/RUBIN 5/SL-8 3.7 01:24:37 67° W 01:24:37 67° W 01:29:04 10° NNW
Cosmos 1805 4.2 01:21:27 10° NNW 01:24:13 40° NW 01:24:13 40° NW
Cosmos 1125 Rocket 3.4 01:24:54 63° WSW 01:25:31 70° WNW 01:30:45 10° NNE
Cosmos 1766 3.6 01:23:03 10° N 01:26:23 60° NNW 01:26:23 60° NNW
Cosmos 1400 Rocket 3.5 01:26:22 10° N 01:30:24 50° ENE 01:31:01 46° ESE
Resurs 1-4 Rocket 2.1 01:26:22 10° NNE 01:31:39 75° ESE 01:32:45 56° S
Cosmos 2369 Rocket 3.1 01:31:09 32° W 01:32:41 38° NW 01:37:56 10° NNE
ADEOS II 3.2 01:29:14 10° NNE 01:34:05 36° E 01:36:09 27° SE
Meteor 1-23 Rocket 4.4 01:35:38 51° SW 01:36:50 63° WNW 01:42:38 10° N
Cosmos 1733 4.3 01:37:12 10° NNW 01:39:44 34° NW 01:39:44 34° NW
Cosmos 494 Rocket 4.3 01:35:52 10° NNW 01:40:39 46° W 01:40:39 46° W
CZ-3B R/B 4.4 01:28:49 28° SW 01:41:45 74° SE 01:47:38 10° ENE
SL-19 R/B 4.4 01:37:56 10° NNE 01:43:45 68° ESE 01:45:37 42° S
Tianhe-1 4.0 01:46:44 11° ESE 01:46:44 11° ESE 01:46:52 10° ESE
Cosmos 1605 Rocket 4.0 01:38:27 10° NNW 01:44:35 66° W 01:46:26 45° SSW
Gblst 52 Del rocket 4.1 01:38:26 10° WNW 01:44:42 76° SSW 01:50:19 10° SE
Lacrosse 5 3.3 01:45:07 24° SE 01:45:55 25° SE 01:50:02 10° ENE
ARGOS Delta rocket 4.4 01:41:48 10° NNE 01:46:09 47° E 01:47:33 36° SE
Cosmos 1470 3.1 01:45:56 10° N 01:49:48 62° E 01:50:26 52° SE
Cosmos 1378 Rocket 3.4 01:51:11 70° SSW 01:51:40 86° W 01:56:02 10° N
Cosmos 1943 Rocket 4.3 01:50:55 12° W 01:54:02 18° NW 01:57:45 10° N
BREEZE-M DEB (TANK) 4.0 01:53:33 30° SSE 01:55:12 36° ESE 02:05:53 10° ENE
Cosmos 1459 Rocket 4.5 01:49:38 10° N 01:55:53 59° ENE 02:01:05 15° SSE
Cosmos 724 4.4 01:56:07 43° SSW 01:58:20 85° SE 02:04:38 10° NE
Cosmos 1607 4.4 01:55:38 32° WSW 01:58:27 54° NW 02:04:50 10° NNE
Okean 1 Rocket 2.9 01:54:58 10° N 01:59:26 86° WSW 02:00:21 55° S
Cosmos 1269 Rocket 3.9 01:54:11 10° NNW 01:59:29 78° WSW 02:01:40 36° S
Cosmos 2173 Rocket 4.2 01:55:35 10° N 02:01:41 66° E 02:06:41 16° SSE
IRS-1D 4.1 01:56:29 10° NNE 02:01:42 53° E 02:04:22 28° SSE
Cosmos 1726 2.1 02:00:21 10° N 02:04:05 79° E 02:04:34 64° SSE
Cosmos 44 Rocket 3.4 01:59:35 10° NW 02:04:52 85° NE 02:09:59 10° SE
COSMOS 2455 3.9 02:00:05 10° NNW 02:05:51 45° NE 02:11:36 10° ESE
Meteor 2-20 4.4 02:04:50 38° SSW 02:07:15 70° W 02:13:26 10° N
SL-16 R/B 2.7 02:06:09 36° SSW 02:08:23 53° W 02:14:31 10° NNW
Cosmos 1802 Rocket 4.4 02:02:20 10° N 02:08:27 59° ENE 02:14:28 10° SSE
Meteor 1-28 Rocket 3.9 02:07:32 26° SE 02:09:19 50° ENE 02:12:55 10° N
Cosmos 1842 3.7 02:10:36 44° W 02:10:40 44° WNW 02:14:24 10° N
Meteor 1-29 2.8 02:10:01 10° N 02:13:21 70° WNW 02:13:24 70° W
Cosmos 1674 Rocket 4.1 02:14:50 38° W 02:15:30 41° WNW 02:19:44 10° N
NPP 3.8 02:10:45 10° N 02:16:03 59° WNW 02:18:04 36° SW
Cosmos 2100 Rocket 4.0 02:10:52 10° N 02:17:09 90° SW 02:21:53 19° S
Cosmos 2227 Rocket 3.8 02:13:02 10° NNW 02:18:13 35° NE 02:23:20 10° ESE
Okean 2 3.6 02:19:01 46° WSW 02:19:44 53° WNW 02:23:51 10° N
Cosmos 1953 3.6 02:17:37 10° N 02:21:23 39° ENE 02:25:07 10° SSE
Helios 1B rocket 3.3 02:18:20 10° N 02:22:06 34° WNW 02:22:48 31° W
ISS -2.5 02:21:16 27° WNW 02:22:28 37° NNW 02:25:39 10° NE
Cosmos 2297 Rocket 3.2 02:17:03 10° NNW 02:22:32 47° ENE 02:27:59 10° SE
Landsat 4 3.9 02:19:01 10° N 02:22:40 53° WNW 02:23:14 47° WSW
AQUA 4.0 02:18:14 10° N 02:22:55 57° WNW 02:24:31 37° SW
Gbstr 26 Del rocket 3.9 02:17:25 10° WNW 02:23:04 39° SW 02:26:08 20° SSE
DELTA 2 DEB (DPAF) 4.0 02:21:24 33° S 02:23:22 76° WSW 02:27:51 10° NNW
BREEZE-M R/B 3.9 02:21:29 15° WNW 02:25:10 52° SSW 02:34:01 10° SE
Cosmos 2123 Rocket 4.4 02:23:04 15° SSE 02:28:05 60° E 02:34:11 10° NNE
ADEOS Rocket 3.5 02:23:01 10° SSE 02:30:10 90° WSW 02:37:56 10° NNW
OAO 3 Rocket 4.5 02:33:09 23° S 02:33:09 23° S 02:36:40 10° SE
Cosmos 371 Rocket 4.3 02:30:01 17° SSE 02:33:19 41° ESE 02:37:53 10° NE
Spot 1 4.2 02:30:01 14° SSE 02:33:47 82° ENE 02:38:33 10° NNW
Cosmos 1025 Rocket 4.2 02:31:16 13° SSE 02:34:43 40° E 02:38:47 10° NNE
COSMOS 2487 3.4 02:32:06 10° NW 02:34:28 29° WNW 02:34:28 29° WNW
CZ-2D R/B 3.1 02:32:30 10° N 02:37:21 33° WNW 02:39:41 23° WSW
ATLAS CENTAUR R/B 2.6 02:38:44 21° WNW 02:40:06 26° NW 02:43:23 10° NNE
[s.n.48335] 2.3 02:41:23 71° SSE 02:41:23 71° SSE 02:43:47 10° SE
[s.n.48334] 2.3 02:41:26 72° SSE 02:41:26 72° SSE 02:43:50 10° SE
[s.n.48333] 2.5 02:41:41 58° SE 02:41:41 58° SE 02:43:52 10° SE
[s.n.48332] 2.3 02:41:30 72° SSE 02:41:30 72° SSE 02:43:55 10° SE
[s.n.48331] 2.3 02:41:39 71° SSE 02:41:39 71° SSE 02:44:03 10° SE
[s.n.48330] 2.5 02:41:53 60° SE 02:41:53 60° SE 02:44:06 10° SE
[s.n.48329] 2.3 02:41:48 71° SSE 02:41:48 71° SSE 02:44:11 10° SE
[s.n.48328] 2.5 02:42:01 60° SE 02:42:01 60° SE 02:44:12 10° SE
[s.n.48327] 2.5 02:42:04 60° SE 02:42:04 60° SE 02:44:16 10° SE
[s.n.48326] 2.3 02:42:01 69° SSE 02:42:01 69° SSE 02:44:22 10° SE
Lacrosse 4 Rocket 4.5 02:41:19 10° ESE 02:41:49 10° ESE 02:42:18 10° E
NOSS 2-1 (C) 4.4 02:37:04 10° NW 02:42:08 58° SW 02:49:15 10° SSE
[s.n.48324] 2.2 02:44:12 72° S 02:44:12 72° S 02:46:39 10° SE
ARIANE 5 R/B 3.3 02:39:45 10° NNE 02:44:47 48° E 02:49:42 10° S
[s.n.48325] 2.2 02:44:48 75° SSW 02:44:48 75° SSW 02:47:25 10° SE
[s.n.48323] 2.3 02:45:06 68° S 02:45:06 68° S 02:47:30 10° SE
[s.n.48321] 2.3 02:45:16 69° S 02:45:16 69° S 02:47:41 10° SE
[s.n.48320] 2.2 02:45:17 71° S 02:45:17 71° S 02:47:44 10° SE
[s.n.48322] 2.2 02:45:11 74° SW 02:45:12 74° SW 02:47:49 10° SE
[s.n.48318] 2.3 02:45:26 68° S 02:45:26 68° S 02:47:49 10° SE
[s.n.48319] 2.3 02:45:26 68° S 02:45:26 68° S 02:47:49 10° SE
[s.n.48317] 2.3 02:45:35 68° S 02:45:35 68° S 02:47:58 10° SE
[s.n.48316] 2.3 02:45:37 68° S 02:45:37 68° S 02:48:02 10° SE
[s.n.48315] 2.2 02:45:43 69° S 02:45:43 69° S 02:48:08 10° SE
[s.n.48314] 2.2 02:45:46 70° S 02:45:46 70° S 02:48:12 10° SE
[s.n.48313] 2.2 02:45:52 69° S 02:45:52 69° S 02:48:17 10° SE
[s.n.48312] 2.2 02:45:56 69° S 02:45:56 69° S 02:48:20 10° SE
[s.n.48311] 2.2 02:46:00 69° S 02:46:00 69° S 02:48:25 10° SE
Cosmos 1455 Rocket 2.9 02:41:31 10° N 02:45:52 88° WSW 02:49:31 14° S
[s.n.48310] 2.2 02:45:50 72° SW 02:45:54 73° SSW 02:48:31 10° SE
[s.n.48309] 2.2 02:45:54 72° SW 02:45:58 73° SSW 02:48:36 10° SE
[s.n.48308] 2.2 02:45:59 72° SW 02:46:03 72° SW 02:48:40 10° SE
[s.n.48307] 2.2 02:46:13 70° S 02:46:13 70° S 02:48:42 10° SE
[s.n.48306] 2.2 02:46:14 72° SSW 02:46:14 72° SSW 02:48:46 10° SE
[s.n.48305] 2.2 02:46:18 72° SSW 02:46:18 72° SSW 02:48:52 10° SE
[s.n.48304] 2.2 02:46:25 70° S 02:46:25 70° S 02:48:54 10° SE
[s.n.48303] 2.2 02:46:26 71° SSW 02:46:26 71° SSW 02:49:00 10° SE
[s.n.48302] 2.2 02:46:30 71° SSW 02:46:30 71° SSW 02:49:04 10° SE
[s.n.48301] 2.2 02:46:39 70° S 02:46:39 70° S 02:49:08 10° SE
[s.n.48300] 2.2 02:46:40 70° SSW 02:46:40 70° SSW 02:49:10 10° SE
[s.n.48299] 2.2 02:46:47 70° SSW 02:46:47 70° SSW 02:49:17 10° SE
[s.n.48298] 2.2 02:46:46 71° SSW 02:46:46 71° SSW 02:49:22 10° SE
[s.n.48297] 2.2 02:46:44 69° WSW 02:46:52 71° SSW 02:49:28 10° SE
[s.n.48296] 2.2 02:46:48 69° WSW 02:46:56 71° SSW 02:49:33 10° SE
[s.n.48295] 2.2 02:47:03 70° SSW 02:47:03 70° SSW 02:49:35 10° SE
[s.n.48294] 2.2 02:47:08 70° SSW 02:47:08 70° SSW 02:49:39 10° SE
[s.n.48293] 2.2 02:47:12 70° SSW 02:47:12 70° SSW 02:49:43 10° SE
[s.n.48292] 2.2 02:47:00 66° WSW 02:47:11 70° SW 02:49:49 10° SE
[s.n.48291] 2.2 02:47:20 70° SSW 02:47:20 70° SSW 02:49:52 10° SE
[s.n.48290] 2.2 02:47:22 70° SSW 02:47:22 70° SSW 02:49:54 10° SE
[s.n.48289] 2.2 02:47:28 70° SSW 02:47:28 70° SSW 02:50:01 10° SE
[s.n.48288] 2.2 02:47:31 69° SSW 02:47:31 69° SSW 02:50:05 10° SE
[s.n.48286] 2.2 02:47:33 69° SSW 02:47:33 69° SSW 02:50:06 10° SE
[s.n.48287] 2.2 02:47:36 69° SSW 02:47:36 69° SSW 02:50:09 10° SE
[s.n.48285] 2.2 02:47:45 69° SSW 02:47:45 69° SSW 02:50:18 10° SE
[s.n.48284] 2.2 02:47:48 69° SSW 02:47:48 69° SSW 02:50:22 10° SE
[s.n.48283] 2.2 02:47:54 69° SSW 02:47:54 69° SSW 02:50:28 10° SE
[s.n.48282] 2.2 02:47:56 69° SW 02:47:57 69° SW 02:50:32 10° SE
[s.n.48281] 2.2 02:47:49 63° WSW 02:48:02 69° SW 02:50:40 10° SE
[s.n.48280] 2.2 02:48:05 68° SW 02:48:06 68° SW 02:50:41 10° SE
[s.n.48279] 2.2 02:48:09 68° SW 02:48:10 68° SW 02:50:45 10° SE
[s.n.48278] 2.2 02:48:11 68° SW 02:48:15 68° SW 02:50:50 10° SE
[s.n.48277] 2.2 02:48:18 68° SW 02:48:19 68° SW 02:50:54 10° SE
[s.n.48276] 2.2 02:48:16 65° WSW 02:48:27 68° SSW 02:51:03 10° SE
NOSS 2-1 (D) 4.5 02:43:49 10° NW 02:48:51 52° WSW 02:55:54 10° SSE
CZ-4C R/B 3.5 02:45:49 18° S 02:49:02 68° WSW 02:53:20 10° NNW
Cosmos 1758 3.9 02:47:29 10° NNW 02:51:19 39° W 02:52:44 29° SW
In-Cosmos 22 4.2 02:48:04 22° SSW 02:51:53 73° WNW 02:57:30 10° N
Cosmos 2219 3.5 02:47:57 10° NNW 02:53:40 70° ENE 02:59:22 10° SSE
KORONAS-FOTON 3.8 02:52:13 23° S 02:54:33 88° W 02:58:30 10° N
Meteor 2-11 Rocket 4.4 02:49:43 10° NNW 02:55:50 67° W 03:01:54 10° S
Cosmos 1707 3.7 02:56:07 25° WSW 02:57:17 31° WNW 03:00:44 10° N
Cosmos 1674 2.6 02:56:39 24° SSW 02:58:53 77° W 03:02:45 10° N
SL-08 R/B 4.5 02:55:42 10° N 03:02:01 79° W 03:08:22 10° S
Cosmos 1315 Rocket 3.1 02:58:29 10° NNW 03:02:15 44° W 03:04:34 21° SSW
USA 129 3.5 03:02:31 10° SE 03:04:49 35° ENE 03:06:52 10° N
CBERS-1 4.4 03:03:47 10° N 03:08:43 50° WNW 03:12:18 18° SW
IDEFIX/ARIANE 42P 2.7 03:04:38 10° N 03:09:51 65° WNW 03:14:07 15° SSW
Timation 2 Rocket 3.9 03:04:27 10° NNW 03:10:29 90° WSW 03:16:30 10° SSE
Cosmos 2061 Rocket 4.1 03:04:33 10° NNW 03:10:45 62° W 03:16:59 10° S
Resurs 1-4 Rocket 3.9 03:07:30 10° NNW 03:10:52 18° WNW 03:13:49 11° W
Cosmos 1300 4.2 03:08:18 10° N 03:11:54 39° ENE 03:15:30 10° SSE
TSX-5 4.3 03:10:06 10° NNW 03:13:20 54° ENE 03:17:04 10° SE
ADEOS II 3.0 03:09:04 10° N 03:13:42 33° WNW 03:17:06 16° WSW
USA 276 2.9 03:14:03 21° SSW 03:15:42 40° SSE 03:18:42 10° ENE
Cosmos 1975 Rocket 3.7 03:13:30 19° SW 03:16:07 37° WNW 03:20:11 10° N
Cosmos 614 Rocket 3.9 03:11:13 10° NNW 03:16:19 79° WSW 03:21:24 10° SSE
Cosmos 1908 3.3 03:13:16 10° NNW 03:17:03 54° W 03:20:51 10° S
Cosmos 1725 Rocket 4.1 03:11:44 10° NNW 03:17:54 59° W 03:23:59 10° S
Tianhe-1 1.7 03:18:37 21° WSW 03:20:13 38° S 03:23:09 10° ESE
Meteor 1-16 Rocket 4.5 03:15:06 10° NNW 03:20:53 55° W 03:26:36 10° S
BREEZE-M DEB (TANK) 2.7 03:19:52 16° SSW 03:21:56 32° SSE 03:24:01 10° E
Cosmos 407 Rocket 4.0 03:18:16 10° NNW 03:23:36 66° ENE 03:28:55 10° SSE
ERS-1 4.5 03:18:51 10° NNE 03:23:54 79° WNW 03:29:00 10° SSW
SL-14 R/B 3.4 03:20:28 10° S 03:24:19 73° E 03:28:14 10° NNE
Cosmos 1656 3.7 03:20:47 14° SW 03:25:24 71° WNW 03:30:55 10° NNE
SL-08 R/B 3.3 03:23:33 10° S 03:28:15 62° WSW 03:32:56 10° NNW
Lacrosse 5 2.0 03:24:19 15° WSW 03:28:31 69° NW 03:33:36 10° NE
Spot 4 Rocket 4.3 03:23:24 10° NNE 03:28:34 74° ESE 03:33:41 10° S
IRS-1C 4.4 03:29:43 10° N 03:34:53 52° WNW 03:40:02 10° SW
Cosmos 2233 Rocket 4.0 03:31:10 10° NNW 03:37:19 65° W 03:43:24 10° S
Cosmos 2251 Rocket 4.0 03:33:59 10° NW 03:38:48 38° WSW 03:43:36 10° S
Cosmos 2056 Rocket 4.2 03:35:11 10° S 03:40:08 53° ESE 03:45:07 10° NNE
MSX 4.1 03:35:48 10° N 03:41:23 52° WNW 03:46:58 10° SW
CZ-4B R/B 3.8 03:37:38 10° N 03:42:20 49° WNW 03:47:08 10° SW
Cosmos 405 4.4 03:40:36 10° N 03:43:59 43° ENE 03:47:20 10° SSE
Iridium 2 3.9 03:40:44 10° SSW 03:44:25 51° W 03:48:09 10° N
Cosmos 1697 Rocket 2.7 03:43:01 10° SSW 03:48:38 88° WNW 03:54:18 10° NNE
COSMOS 2455 3.4 03:46:16 10° NW 03:51:41 36° WSW 03:57:05 10° S
Cosmos 1626 3.0 03:48:28 10° SW 03:51:48 32° WNW 03:55:11 10° N
Cosmos 1371 Rocket 4.2 03:46:39 10° SSW 03:51:55 77° ESE 03:57:09 10° NNE
PAYLOAD A 3.8 03:48:19 10° NNE 03:53:11 85° WNW 03:57:53 10° SSW
PSLV R/B 4.1 03:52:32 10° NNE 03:56:41 58° E 04:00:49 10° S
GP-B 4.4 03:53:43 10° NNW 03:57:15 23° WNW 04:00:45 10° SW
Cosmos 1953 4.0 03:54:54 10° NW 03:57:25 16° W 03:59:55 10° SW
Cosmos 1980 Rocket 2.8 03:51:55 10° S 03:57:29 59° ESE 04:03:04 10° NNE
APEX 3.7 03:53:29 10° NNW 03:57:38 86° WSW 04:02:51 10° SSE
Cosmos 304 Rocket 3.9 03:53:19 10° SSW 03:58:02 61° WNW 04:02:48 10° NNE
Cosmos 2369 3.9 03:52:25 10° SSW 03:58:08 84° ESE 04:03:55 10° NNE
CZ-2C R/B 2.5 03:53:54 10° NNE 03:58:56 82° WNW 04:04:05 10° SSW
ISS -1.8 03:56:52 10° WNW 03:59:52 28° N 04:02:51 10° ENE
Cosmos 2227 Rocket 2.6 03:57:04 10° NW 04:02:19 40° WSW 04:07:32 10° S
Timation 1 Rocket 4.4 03:56:47 10° NW 04:02:38 60° WSW 04:08:29 10° S
Cosmos 2278 4.4 03:57:20 10° S 04:02:54 58° ESE 04:08:30 10° NNE
Meteor 2-5 Rocket 3.8 03:57:18 10° SSW 04:03:04 69° WNW 04:08:45 10° N
USA 234 3.9 03:59:41 10° ENE 04:06:05 54° SE 04:12:27 10° SSW
Cosmos 2297 Rocket 3.0 04:01:33 10° NW 04:06:21 29° WSW 04:11:07 10° SSW
